Location: Caserta
(41.0670°N, 14.3330°E)
Time: 01:31:20
(UTC+02:00)

STARLINK-1341 - Visible Passes

Search period start: 02 October 2020 00:00
Search period end: 12 October 2020 00:00
Orbit: 549 x 550 km, 53.0° (Epoch: 01 October)

Date Brightness Start Highest point End Pass type
(mag) Time Alt. Az. Time Alt. Az. Time Alt. Az.
02 Oct 5.5 04:23:23 28° NE 04:23:23 28° NE 04:25:26 10° NE visible
02 Oct 5.4 05:59:03 13° WNW 06:01:30 20° NNW 06:04:38 10° NNE visible
03 Oct 5.9 04:18:13 22° NE 04:18:13 22° NE 04:19:53 10° NE visible
03 Oct 5.6 05:53:53 13° NW 05:56:10 18° NNW 05:59:06 10° NNE visible
04 Oct 6.1 04:13:01 18° NNE 04:13:01 18° NNE 04:14:18 10° NE visible
04 Oct 5.7 05:48:40 12° NW 05:50:50 17° N 05:53:36 10° NNE visible
05 Oct 6.4 04:07:45 15° NNE 04:07:45 15° NNE 04:08:41 10° NE visible
05 Oct 5.8 05:43:24 12° NW 05:45:30 16° N 05:48:07 10° NNE visible
06 Oct 6.6 04:02:28 13° NNE 04:02:28 13° NNE 04:03:03 10° NE visible
06 Oct 5.9 05:38:07 12° NW 05:40:08 16° N 05:42:41 10° NE visible
07 Oct 6.8 03:57:10 11° NNE 03:57:10 11° NNE 03:57:25 10° NE visible
07 Oct 5.9 05:32:49 12° NNW 05:34:46 16° N 05:37:19 10° NE visible
08 Oct 5.9 05:27:30 12° NNW 05:29:23 16° N 05:31:58 10° NE visible
09 Oct 5.9 05:22:11 13° NNW 05:23:58 17° N 05:26:41 10° NE visible
10 Oct 5.8 05:16:53 14° NNW 05:18:32 18° NNE 05:21:24 10° NE visible
11 Oct 5.7 05:11:36 16° NNW 05:13:05 19° NNE 05:16:07 10° ENE visible
